When you browse on this site, cookies collect data to enhance your experience and personalize the content and advertising you see.
Visit our Privacy Policy to learn more. By continuing to use the site, you agree to this use of cookies and data.
  • In Hungary
  • List of Countries
  • For 7 days
  • Water Temperature
  • Weather Map
  • News
  • Weather Widgets
  • user-avatar
    Login

    Hourly Weather Bohumin

    Today, 29 February, Saturday

    Time Temperature Precipitation Wind Pressure Humidity
    00:00 0°C° 0 mm 3 mps 745 mmHg 85%
    01:00 -1°C° 0 mm 3 mps 744 mmHg 84%
    02:00 -1°C° 0 mm 3 mps 744 mmHg 83%
    03:00 -1°C° 0 mm 3 mps 743 mmHg 82%
    04:00 0°C° 0 mm 3 mps 743 mmHg 80%
    05:00 -1°C° 0 mm 4 mps 742 mmHg 79%
    06:00 -1°C° 0 mm 4 mps 742 mmHg 77%
    07:00 -1°C° 0 mm 4 mps 741 mmHg 76%
    08:00 -1°C° 0 mm 6 mps 741 mmHg 71%
    09:00 0°C° 0 mm 7 mps 740 mmHg 66%
    10:00 +1°C° 0 mm 8 mps 739 mmHg 62%
    11:00 +2°C° 0 mm 8 mps 739 mmHg 61%
    12:00 +2°C° 0 mm 8 mps 739 mmHg 60%
    13:00 +4°C° 0 mm 8 mps 738 mmHg 59%
    14:00 +4°C° 0 mm 8 mps 738 mmHg 60%
    15:00 +4°C° 0 mm 8 mps 737 mmHg 60%
    16:00 +4°C° 0 mm 7 mps 736 mmHg 60%
    17:00 +4°C° 0 mm 7 mps 736 mmHg 61%
    18:00 +3°C° 0 mm 6 mps 736 mmHg 62%
    19:00 +3°C° 0 mm 6 mps 735 mmHg 63%
    20:00 +3°C° 0 mm 6 mps 735 mmHg 64%
    21:00 +3°C° 0 mm 6 mps 735 mmHg 64%
    22:00 +3°C° 0 mm 6 mps 735 mmHg 65%
    23:00 +3°C° 0 mm 5 mps 735 mmHg 66%

    Tomorrow, 1 March, Sunday

    Time Temperature Precipitation Wind Pressure Humidity
    00:00 +3°C° 0 mm 5 mps 735 mmHg 68%
    01:00 +3°C° 0 mm 4 mps 735 mmHg 70%
    02:00 +3°C° 0 mm 4 mps 735 mmHg 71%
    03:00 +3°C° 0 mm 4 mps 735 mmHg 73%
    04:00 +3°C° 0 mm 4 mps 735 mmHg 75%
    05:00 +3°C° 0.1 mm 3 mps 735 mmHg 76%
    06:00 +4°C° 0.1 mm 2 mps 735 mmHg 78%
    07:00 +4°C° 0.1 mm 2 mps 735 mmHg 80%
    08:00 +4°C° 0.3 mm 2 mps 736 mmHg 80%
    09:00 +5°C° 0.3 mm 2 mps 736 mmHg 80%
    10:00 +5°C° 0.3 mm 2 mps 736 mmHg 80%
    11:00 +4°C° 0.3 mm 3 mps 736 mmHg 81%
    12:00 +4°C° 0.3 mm 3 mps 736 mmHg 83%
    13:00 +5°C° 0.3 mm 3 mps 736 mmHg 85%
    14:00 +5°C° 0.2 mm 3 mps 735 mmHg 85%
    15:00 +5°C° 0.2 mm 3 mps 735 mmHg 86%
    16:00 +5°C° 0.2 mm 3 mps 735 mmHg 87%
    17:00 +4°C° 0.1 mm 3 mps 735 mmHg 87%
    18:00 +4°C° 0.1 mm 3 mps 735 mmHg 88%
    19:00 +4°C° 0.1 mm 3 mps 735 mmHg 89%
    20:00 +4°C° 0.1 mm 3 mps 735 mmHg 89%
    21:00 +5°C° 0.1 mm 2 mps 734 mmHg 89%
    22:00 +5°C° 0.1 mm 2 mps 734 mmHg 89%
    23:00 +4°C° 0 mm 2 mps 734 mmHg 90%

    Day after tomorrow, 2 March, Monday

    Time Temperature Precipitation Wind Pressure Humidity
    00:00 +5°C° 0 mm 1 mps 733 mmHg 91%
    01:00 +4°C° 0 mm 1 mps 733 mmHg 92%
    02:00 +4°C° 0 mm 1 mps 732 mmHg 92%
    03:00 +4°C° 0 mm 1 mps 731 mmHg 92%
    04:00 +4°C° 0 mm 1 mps 730 mmHg 93%
    05:00 +4°C° 1 mm 1 mps 730 mmHg 93%
    06:00 +3°C° 1 mm 0 mps 730 mmHg 94%
    07:00 +3°C° 1 mm 0 mps 730 mmHg 95%
    08:00 +5°C° 1.4 mm 1 mps 730 mmHg 93%
    09:00 +4°C° 1.4 mm 2 mps 730 mmHg 91%
    10:00 +4°C° 1.4 mm 3 mps 730 mmHg 89%
    11:00 +5°C° 0 mm 3 mps 730 mmHg 82%
    12:00 +7°C° 0 mm 3 mps 730 mmHg 75%
    13:00 +8°C° 0 mm 3 mps 730 mmHg 67%
    14:00 +8°C° 0 mm 3 mps 731 mmHg 67%
    15:00 +8°C° 0 mm 3 mps 731 mmHg 66%
    16:00 +7°C° 0 mm 4 mps 731 mmHg 65%
    17:00 +7°C° 0 mm 3 mps 731 mmHg 71%
    18:00 +5°C° 0 mm 3 mps 732 mmHg 76%
    19:00 +4°C° 0 mm 3 mps 732 mmHg 82%
    20:00 +4°C° 0 mm 3 mps 732 mmHg 82%
    21:00 +3°C° 0 mm 3 mps 732 mmHg 82%
    22:00 +3°C° 0 mm 3 mps 733 mmHg 81%
    23:00 +3°C° 0 mm 3 mps 732 mmHg 81%

    3 March, Tuesday

    Time Temperature Precipitation Wind Pressure Humidity
    00:00 +4°C° 0 mm 2 mps 732 mmHg 80%
    01:00 +3°C° 0 mm 2 mps 732 mmHg 80%
    02:00 +3°C° 0 mm 2 mps 732 mmHg 78%
    03:00 +3°C° 0 mm 2 mps 732 mmHg 77%
    04:00 +3°C° 0 mm 2 mps 732 mmHg 75%
    05:00 +4°C° 0 mm 2 mps 732 mmHg 75%
    06:00 +4°C° 0 mm 2 mps 732 mmHg 74%
    07:00 +5°C° 0 mm 1 mps 732 mmHg 74%
    08:00 +6°C° 0.8 mm 1 mps 733 mmHg 79%
    09:00 +6°C° 0.8 mm 1 mps 733 mmHg 83%
    10:00 +5°C° 0.8 mm 0 mps 733 mmHg 88%
    11:00 +5°C° 0.8 mm 0 mps 733 mmHg 90%
    12:00 +5°C° 0.8 mm 0 mps 733 mmHg 92%
    13:00 +6°C° 0.8 mm 1 mps 733 mmHg 93%
    14:00 +6°C° 0.5 mm 1 mps 733 mmHg 94%
    15:00 +6°C° 0.5 mm 1 mps 734 mmHg 95%
    16:00 +5°C° 0.5 mm 2 mps 734 mmHg 95%
    17:00 +5°C° 0.1 mm 2 mps 734 mmHg 94%
    18:00 +5°C° 0.1 mm 2 mps 734 mmHg 93%
    19:00 +5°C° 0.1 mm 2 mps 735 mmHg 92%
    20:00 +5°C° 0 mm 2 mps 735 mmHg 92%
    21:00 +5°C° 0 mm 2 mps 735 mmHg 91%
    22:00 +5°C° 0 mm 2 mps 736 mmHg 91%
    23:00 +5°C° 0 mm 2 mps 736 mmHg 90%

    4 March, Wednesday

    Time Temperature Precipitation Wind Pressure Humidity
    00:00 +4°C° 0 mm 3 mps 736 mmHg 90%
    01:00 +4°C° 0 mm 3 mps 736 mmHg 90%
    02:00 +4°C° 0.3 mm 3 mps 735 mmHg 91%
    03:00 +4°C° 0.3 mm 3 mps 735 mmHg 92%
    04:00 +4°C° 0.3 mm 3 mps 735 mmHg 93%
    05:00 +3°C° 1 mm 4 mps 735 mmHg 93%
    06:00 +3°C° 1 mm 4 mps 735 mmHg 94%
    07:00 +3°C° 1 mm 4 mps 735 mmHg 95%
    08:00 +3°C° 0.9 mm 4 mps 735 mmHg 95%
    09:00 +3°C° 0.9 mm 4 mps 735 mmHg 95%
    10:00 +3°C° 0.9 mm 4 mps 735 mmHg 95%
    11:00 +3°C° 0.8 mm 4 mps 734 mmHg 95%
    12:00 +1°C° 0.8 mm 4 mps 734 mmHg 95%
    13:00 +1°C° 0.8 mm 4 mps 734 mmHg 95%
    14:00 +3°C° 0.9 mm 4 mps 734 mmHg 95%
    15:00 +3°C° 0.9 mm 4 mps 733 mmHg 95%
    16:00 +3°C° 0.9 mm 4 mps 733 mmHg 94%
    17:00 +3°C° 0.9 mm 4 mps 733 mmHg 95%
    18:00 +3°C° 0.9 mm 4 mps 734 mmHg 95%
    19:00 +3°C° 0.9 mm 4 mps 734 mmHg 95%
    20:00 +3°C° 0.6 mm 4 mps 734 mmHg 94%
    21:00 +3°C° 0.6 mm 4 mps 734 mmHg 93%
    22:00 +3°C° 0.6 mm 3 mps 734 mmHg 93%
    23:00 +3°C° 0.3 mm 3 mps 734 mmHg 91%

    5 March, Thursday

    Time Temperature Precipitation Wind Pressure Humidity
    00:00 +3°C° 0.3 mm 3 mps 734 mmHg 90%
    01:00 +3°C° 0.3 mm 3 mps 734 mmHg 88%
    02:00 +2°C° 0.3 mm 3 mps 734 mmHg 89%
    03:00 +2°C° 0.3 mm 3 mps 734 mmHg 89%
    04:00 +2°C° 0.3 mm 3 mps 735 mmHg 90%
    05:00 +2°C° 0.2 mm 3 mps 735 mmHg 89%
    06:00 +2°C° 0.2 mm 3 mps 735 mmHg 89%
    07:00 +2°C° 0.2 mm 2 mps 735 mmHg 88%
    08:00 +3°C° 0 mm 2 mps 736 mmHg 83%
    09:00 +4°C° 0 mm 2 mps 736 mmHg 79%
    10:00 +4°C° 0 mm 2 mps 736 mmHg 74%
    11:00 +5°C° 0 mm 2 mps 736 mmHg 70%
    12:00 +6°C° 0 mm 2 mps 736 mmHg 65%
    13:00 +6°C° 0 mm 2 mps 736 mmHg 60%
    14:00 +7°C° 0 mm 2 mps 736 mmHg 58%
    15:00 +8°C° 0 mm 1 mps 736 mmHg 57%
    16:00 +8°C° 0 mm 1 mps 736 mmHg 56%
    17:00 +7°C° 0 mm 1 mps 736 mmHg 60%
    18:00 +6°C° 0 mm 1 mps 736 mmHg 64%
    19:00 +5°C° 0 mm 1 mps 736 mmHg 68%
    20:00 +4°C° 0 mm 1 mps 737 mmHg 73%
    21:00 +4°C° 0 mm 1 mps 737 mmHg 77%
    22:00 +3°C° 0 mm 1 mps 737 mmHg 82%
    23:00 +3°C° 0 mm 1 mps 737 mmHg 84%
    Show more